User: anonymous   Login
Location: Strohbehn Observatory
(42.4649°N, 93.8239°W)
Time: 11:35:50
(UTC-05:00)
Language:

SL-16 R/B - Orbit

View from above orbital plane
View from above orbital plane
View from above satellite
View from above satellite

Ground track
Ground track

The orbit data is extracted from the following two-line orbital elements,

1 31793U 07029B   18110.45586087  .00000168  00000-0  11297-3 0  9993
2 31793  70.9742 103.7309 0002051 280.6090 191.4327 14.14402492558163
Epoch (UTC): 20 April 2018 10:56:26
Eccentricity: 0.0002051
inclination: 70.9742°
perigee height: 843 km
apogee height: 846 km
right ascension of ascending node: 103.7309°
argument of perigee: 280.6090°
revolutions per day: 14.14402492
mean anomaly at epoch: 191.4327°
orbit number at epoch: 55816

The dashed part of the orbit path shows where the satellite is in the earth's shadow,  

DLR